Flag for United Kingdom Weather past 2 weeks in Fort William, Scotland, United Kingdom

Now
49 °F

Cool.


Feels Like: 47 °F
Forecast: 47 / 60 °F
Wind: 5 mph from East

Location: Tulloch Bridge


UV Index: 0 (Low)

Visibility: 19 mi


Pressure: 29.89 "Hg

Humidity: 83%

Dew point: 44 °F

Location of Fort WilliamLocation

Historic Weather in Fort William

°F

Fort William temperature yesterday

Maximum temperature yesterday: 52 °F (at 5:00 PM)
Minimum temperature yesterday: 46 °F (at 6:00 AM)
Average temperature yesterday: 49 °F

Past Weeks' High & Low Weather Summary

 TemperatureHumidityPressure
High63 °F (Apr 21, 3:00 PM)95% (Apr 15, 3:00 AM)30.42 "Hg (Apr 15, 3:00 AM)
Low25 °F (Apr 18, 4:00 AM)32% (Apr 20, 4:00 PM)29.68 "Hg (Apr 12, 8:00 AM)
Average46 °F73%30.04 "Hg
* Reported Apr 8 7:00 AM — Apr 23 7:00 AM, Fort William, Weather by CustomWeather, © 2014

Note: Actual official high and low records may vary slightly from our data, if they occured in-between our weather recording intervals... More about our weather records

Advertising

Historic Weather Conditions — Data for Previous 24 hours

 ConditionsComfort  
Time TempWeatherWind HumidityBarometerVisibility
7:00 AM
Apr 23
49 °FCool.5 mph83%29.89 "Hg19 mi
6:00 AM47 °FCool.7 mph87%29.88 "Hg19 mi
5:00 AM47 °FCool.9 mph87%29.88 "Hg19 mi
4:00 AM47 °FRain showers. Overcast.12 mph90%29.87 "Hg5 mi
3:00 AM48 °FCool.5 mph85%29.87 "Hg14 mi
2:00 AM47 °FCool.10 mph87%29.86 "Hg14 mi
1:00 AM47 °FCool.10 mph88%29.86 "Hg9 mi
12:00 AM48 °FCool.8 mph87%29.85 "Hg16 mi
11:00 PM
Apr 22
48 °FCool.3 mph89%29.85 "Hg22 mi
10:00 PM48 °FLight rain. Overcast.3 mph91%29.85 "Hg10 mi
9:00 PM50 °FLight rain. Overcast.7 mph86%29.85 "Hg19 mi
8:00 PM51 °FCool.5 mph85%29.84 "Hg14 mi
7:00 PM51 °FLots of rain. Cloudy.6 mph85%29.84 "Hg5 mi
6:00 PM51 °FRain showers. Cloudy.5 mph83%29.85 "Hg16 mi
5:00 PM52 °FCool.2 mph85%29.86 "Hg28 mi
4:00 PM51 °FCool.7 mph85%29.87 "Hg28 mi
3:00 PM49 °FLight rain. Cloudy.5 mph88%29.90 "Hg17 mi
2:00 PM49 °FRain. Cloudy.3 mph86%29.92 "Hg7 mi
1:00 PM50 °FRain showers. Cloudy.9 mph78%29.92 "Hg11 mi
12:00 PM50 °FCool.3 mph73%29.93 "Hg22 mi
11:00 AM50 °FCool.3 mph70%29.94 "Hg22 mi
10:00 AM50 °FCool.7 mph66%29.94 "Hg28 mi
9:00 AM49 °FCool.8 mph64%29.96 "Hg28 mi
Weather by CustomWeather, © 2014

See weather overview